Location: Battersea Observatory
(44.4318°N, 76.3841°W)
Time: 06:31:31
(UTC-05:00)

Vanguard 1 - All Passes

Search period start: 19 January 2022 00:00
Search period end: 29 January 2022 00:00
Orbit: 652 x 3830 km, 34.2° (Epoch: 18 January)

Date Brightness Start Highest point End Pass type
(mag) Time Alt. Az. Time Alt. Az. Time Alt. Az.
19 Jan - 12:09:18 10° SW 12:13:02 19° S 12:16:16 10° ESE daylight
19 Jan - 14:28:45 10° WSW 14:32:20 24° S 14:36:11 10° SE daylight
19 Jan - 16:49:05 10° SW 16:51:50 15° SSW 16:55:07 10° SSE daylight
20 Jan - 10:11:38 10° S 10:14:02 12° SSE 10:16:07 10° SE daylight
20 Jan - 12:29:41 10° SW 12:33:44 22° S 12:37:13 10° ESE daylight
20 Jan - 14:49:35 10° WSW 14:53:00 21° S 14:56:44 10° SE daylight
20 Jan - 17:11:45 10° SSW 17:12:36 10° SSW 17:13:30 10° S daylight
21 Jan - 10:30:45 10° SSW 10:34:49 16° SSE 10:38:03 10° SE daylight
21 Jan - 12:50:17 10° SW 12:54:24 24° S 12:58:01 10° ESE daylight
21 Jan - 15:10:35 10° WSW 15:13:40 18° SSW 15:17:04 10° SSE daylight
22 Jan - 10:50:40 10° SW 10:55:34 20° S 10:59:19 10° ESE daylight
22 Jan - 13:11:00 10° WSW 13:15:04 25° S 13:18:43 10° SE daylight
22 Jan - 15:31:53 10° SW 15:34:20 14° SSW 15:37:00 10° SSE daylight
23 Jan - 08:52:14 10° S 08:56:08 13° SSE 08:59:19 10° SE daylight
23 Jan - 11:11:00 10° SW 11:16:20 24° S 11:20:18 10° ESE daylight
23 Jan - 13:31:50 10° WSW 13:35:44 23° S 13:39:18 10° SE daylight
23 Jan - 15:54:17 10° SSW 15:55:00 10° SSW 15:55:44 10° SSW daylight
24 Jan - 09:11:14 10° SSW 09:17:00 18° SSE 09:21:16 10° ESE daylight
24 Jan - 11:31:35 10° SW 11:37:04 27° S 11:41:07 10° ESE daylight
24 Jan - 13:52:49 10° WSW 13:56:22 21° SSW 13:59:43 10° SE daylight
25 Jan - 09:31:02 10° SSW 09:37:52 23° SSE 09:42:35 10° ESE daylight
25 Jan - 11:52:19 10° WSW 11:57:47 29° S 12:01:50 10° ESE daylight
25 Jan - 14:13:59 10° WSW 14:16:59 17° SSW 14:19:52 10° SSE daylight
26 Jan - 07:32:08 10° S 07:37:51 15° SSE 07:42:18 10° SE daylight
26 Jan - 09:51:17 10° SW 09:58:41 27° S 10:03:36 10° ESE daylight
26 Jan - 12:13:11 10° WSW 12:18:28 28° S 12:22:27 10° SE daylight
26 Jan - 14:35:33 10° SW 14:37:33 13° SSW 14:39:31 10° S daylight
27 Jan - 07:50:53 10° SSW 07:58:48 20° SSE 08:04:21 10° ESE daylight
27 Jan - 10:11:51 10° SW 10:19:30 31° S 10:24:28 10° ESE daylight
27 Jan - 12:34:09 10° WSW 12:39:06 26° SSW 12:42:57 10° SE daylight
28 Jan - 05:57:08 10° SSE 05:58:02 10° SSE 05:58:55 10° SE visible
28 Jan - 08:10:29 10° SSW 08:19:43 25° SSE 08:25:46 10° ESE daylight
28 Jan - 10:32:35 10° WSW 10:40:16 34° S 10:45:13 10° ESE daylight
28 Jan - 12:55:15 10° WSW 12:59:42 22° SSW 13:03:18 10° SE daylight
